Weather History for Paynesville, MN

Change the Weather History Date:

Tuesday, October 9, 2012

  Actual Average (KLJF) Record (KLJF)
Temperature  
Mean Temperature 35 °F -  
Max Temperature 45 °F 60 °F 80 °F (1999)
Min Temperature 25 °F 37 °F 24 °F (1964)
Degree Days  
Heating Degree Days 30    
Moisture  
Dew Point 28 °F    
Average Humidity 63    
Maximum Humidity 80    
Minimum Humidity 47    
Precipitation  
Precipitation 0.00 in - - ()
Sea Level Pressure  
Sea Level Pressure 29.84 in    
Wind  
Wind Speed 9 mph (West)    
Max Wind Speed 23 mph    
Max Gust Speed 32 mph    
Visibility 10 miles    
Events      
Averages and records for this station are not official NWS values.
T = Trace of Precipitation, MM = Missing Value Source: NWS Daily Summary

Daily Weather History Graph

Daily Weather History Graph

Search for Another Location

Airport:

Trip Planner

Search our weather history database for the weather conditions in past years. The results will help you decide how hot, cold, wet, or windy it might be!

Date:

Astronomy

Oct. 09, 2012 Rise Set
Actual Time 7:27 AM CDT 6:43 PM CDT
Civil Twilight 6:58 AM CDT 7:12 PM CDT
Nautical Twilight 6:24 AM CDT 7:47 PM CDT
Astronomical Twilight 5:49 AM CDT 8:21 PM CDT
Moon 12:48 AM CDT (10/9) 3:26 PM CDT (10/9)
Length of Visible Light 12h 14m
Length of Day
11h 15m
Last Quarter, 36% of the Moon is Illuminated
Oct 9
Last Quarter
Oct 15
New
Oct 21
First Quarter
Oct 29
Full
Nov 6
Last Quarter

Hourly Weather History & Observations

Time (CDT) Temp. Windchill Dew Point Humidity Pressure Visibility Wind Dir Wind Speed Gust Speed Precip Events Conditions
12:13 AM 41.0 °F 39.0 °F 35.1 °F 79% 29.73 in 10.0 mi SW 3.5 mph - N/A   Scattered Clouds
12:33 AM 40.5 °F - 34.7 °F 80% 29.73 in 10.0 mi Calm Calm - N/A   Mostly Cloudy
12:54 AM 41.5 °F - 35.2 °F 78% 29.73 in 10.0 mi Calm Calm - N/A   Scattered Clouds
1:13 AM 40.5 °F - 34.5 °F 79% 29.73 in 10.0 mi Calm Calm - N/A   Clear
1:54 AM 39.9 °F 36.7 °F 34.0 °F 79% 29.74 in 10.0 mi West 4.6 mph - N/A   Clear
2:14 AM 39.6 °F 36.3 °F 33.4 °F 79% 29.74 in 10.0 mi WSW 4.6 mph - N/A   Scattered Clouds
2:53 AM 39.9 °F 35.8 °F 34.2 °F 80% 29.74 in 10.0 mi WSW 5.8 mph - N/A   Overcast
3:14 AM 41.0 °F 38.0 °F 34.5 °F 78% 29.73 in 10.0 mi West 4.6 mph - N/A   Overcast
3:33 AM 41.0 °F 38.0 °F 34.3 °F 77% 29.72 in 10.0 mi West 4.6 mph - N/A   Overcast
3:53 AM 41.0 °F 37.1 °F 34.3 °F 77% 29.72 in 10.0 mi West 5.8 mph - N/A   Overcast
4:14 AM 41.5 °F 38.6 °F 34.2 °F 75% 29.73 in 10.0 mi West 4.6 mph - N/A   Overcast
4:33 AM 41.4 °F 39.4 °F 34.0 °F 75% 29.73 in 10.0 mi West 3.5 mph - N/A   Overcast
4:53 AM 41.2 °F 38.2 °F 33.8 °F 75% 29.74 in 10.0 mi West 4.6 mph - N/A   Overcast
5:14 AM 41.5 °F 37.8 °F 33.4 °F 73% 29.74 in 10.0 mi WSW 5.8 mph - N/A   Overcast
5:33 AM 42.1 °F 37.1 °F 32.9 °F 70% 29.75 in 10.0 mi West 8.1 mph - N/A   Overcast
5:53 AM 42.8 °F 39.3 °F 32.2 °F 66% 29.76 in 10.0 mi West 5.8 mph - N/A   Overcast
6:14 AM 42.1 °F 37.7 °F 32.0 °F 67% 29.76 in 10.0 mi West 6.9 mph - N/A   Overcast
6:34 AM 41.9 °F 36.9 °F 32.0 °F 68% 29.77 in 10.0 mi West 8.1 mph - N/A   Overcast
6:53 AM 42.4 °F 37.0 °F 30.7 °F 63% 29.77 in 10.0 mi West 9.2 mph - N/A   Overcast
7:13 AM 42.4 °F 36.5 °F 29.1 °F 59% 29.77 in 10.0 mi West 10.4 mph 17.3 mph N/A   Mostly Cloudy
7:34 AM 42.1 °F 36.6 °F 29.1 °F 60% 29.77 in 10.0 mi West 9.2 mph - N/A   Mostly Cloudy
7:53 AM 42.8 °F 37.5 °F 28.9 °F 58% 29.77 in 10.0 mi West 9.2 mph - N/A   Overcast
8:13 AM 42.8 °F 36.2 °F 27.9 °F 56% 29.77 in 10.0 mi West 12.7 mph - N/A   Mostly Cloudy
8:34 AM 42.8 °F 36.6 °F 27.3 °F 54% 29.77 in 10.0 mi West 11.5 mph - N/A   Mostly Cloudy
8:53 AM 42.3 °F 36.3 °F 27.0 °F 55% 29.78 in 10.0 mi West 10.4 mph 24.2 mph N/A   Scattered Clouds
9:14 AM 42.6 °F 35.6 °F 26.8 °F 54% 29.78 in 10.0 mi West 13.8 mph 18.4 mph N/A   Clear
9:34 AM 42.3 °F 34.8 °F 26.6 °F 54% 29.79 in 10.0 mi West 15.0 mph 19.6 mph N/A   Clear
9:53 AM 44.1 °F 36.8 °F 26.6 °F 50% 29.78 in 10.0 mi West 16.1 mph - N/A   Clear
10:14 AM 45.5 °F 37.8 °F 26.2 °F 47% 29.79 in 10.0 mi West 19.6 mph 28.8 mph N/A   Scattered Clouds
10:33 AM 44.8 °F 36.4 °F 25.5 °F 47% 29.79 in 10.0 mi West 21.9 mph 29.9 mph N/A   Scattered Clouds
10:53 AM 45.0 °F 36.4 °F 25.5 °F 47% 29.79 in 10.0 mi West 23.0 mph 31.1 mph N/A   Mostly Cloudy
11:14 AM 44.6 °F 36.6 °F 25.9 °F 48% 29.79 in 10.0 mi West 19.6 mph 29.9 mph N/A   Overcast
11:54 AM 44.4 °F 35.9 °F 26.6 °F 50% 29.80 in 10.0 mi West 21.9 mph 27.6 mph N/A   Overcast
12:13 PM 43.7 °F 36.0 °F 26.6 °F 51% 29.80 in 10.0 mi West 17.3 mph 25.3 mph N/A   Overcast
12:33 PM 43.9 °F 35.2 °F 27.0 °F 51% 29.81 in 10.0 mi West 21.9 mph 28.8 mph N/A   Overcast
12:54 PM 43.9 °F 35.9 °F 28.0 °F 54% 29.81 in 10.0 mi West 18.4 mph 24.2 mph N/A   Overcast
1:13 PM 44.1 °F 36.2 °F 28.4 °F 54% 29.81 in 10.0 mi West 18.4 mph 25.3 mph N/A   Overcast
1:34 PM 44.1 °F 35.2 °F 28.4 °F 54% 29.81 in 10.0 mi West 23.0 mph 27.6 mph N/A   Overcast
1:54 PM 44.2 °F 36.4 °F 29.1 °F 55% 29.82 in 10.0 mi West 18.4 mph 24.2 mph N/A   Overcast
2:13 PM 43.2 °F 34.2 °F 30.9 °F 62% 29.82 in 10.0 mi WNW 21.9 mph 31.1 mph N/A   Overcast
2:34 PM 42.3 °F 34.1 °F 28.9 °F 59% 29.83 in 10.0 mi NW 17.3 mph 29.9 mph N/A   Overcast
2:54 PM 43.2 °F 35.6 °F 29.3 °F 58% 29.84 in 10.0 mi WNW 16.1 mph 27.6 mph N/A   Overcast
3:14 PM 42.3 °F 33.6 °F 29.8 °F 61% 29.85 in 10.0 mi WNW 19.6 mph 31.1 mph N/A   Overcast
3:33 PM 41.9 °F 32.8 °F 28.8 °F 60% 29.86 in 10.0 mi NW 20.7 mph 32.2 mph N/A   Overcast
3:54 PM 41.9 °F 33.1 °F 28.0 °F 58% 29.87 in 10.0 mi WNW 19.6 mph 25.3 mph N/A   Overcast
4:14 PM 41.9 °F 34.0 °F 27.5 °F 57% 29.88 in 10.0 mi WNW 16.1 mph 27.6 mph N/A   Overcast
4:33 PM 42.4 °F 35.3 °F 26.4 °F 53% 29.89 in 10.0 mi NW 13.8 mph 28.8 mph N/A   Mostly Cloudy
4:53 PM 41.9 °F 33.7 °F 24.8 °F 51% 29.90 in 10.0 mi NW 17.3 mph 25.3 mph N/A   Overcast
5:13 PM 41.4 °F 33.6 °F 26.1 °F 55% 29.91 in 10.0 mi WNW 15.0 mph 23.0 mph N/A   Overcast
5:34 PM 41.4 °F 34.7 °F 26.1 °F 55% 29.91 in 10.0 mi WNW 11.5 mph 23.0 mph N/A   Overcast
5:53 PM 40.8 °F 33.3 °F 27.5 °F 59% 29.92 in 10.0 mi WNW 13.8 mph 24.2 mph N/A   Overcast
6:13 PM 40.1 °F 33.2 °F 27.1 °F 60% 29.93 in 10.0 mi WNW 11.5 mph 19.6 mph N/A   Overcast
6:34 PM 39.7 °F 30.6 °F 27.1 °F 61% 29.94 in 10.0 mi WNW 18.4 mph 24.2 mph N/A   Overcast
6:53 PM 39.6 °F 31.7 °F 24.8 °F 56% 29.95 in 10.0 mi NW 13.8 mph 21.9 mph N/A   Overcast
7:13 PM 39.2 °F 32.5 °F 25.3 °F 58% 29.95 in 10.0 mi WNW 10.4 mph 18.4 mph N/A   Overcast
7:34 PM 39.2 °F 32.0 °F 24.8 °F 56% 29.96 in 10.0 mi WNW 11.5 mph 16.1 mph N/A   Overcast
7:53 PM 38.5 °F 32.7 °F 23.9 °F 56% 29.97 in 10.0 mi WNW 8.1 mph - N/A   Overcast
8:13 PM 37.4 °F 32.1 °F 23.5 °F 57% 29.97 in 10.0 mi West 6.9 mph - N/A   Mostly Cloudy
8:34 PM 36.7 °F 32.0 °F 23.0 °F 58% 29.97 in 10.0 mi West 5.8 mph - N/A   Mostly Cloudy
8:54 PM 35.1 °F 28.6 °F 22.1 °F 59% 29.98 in 10.0 mi West 8.1 mph - N/A   Scattered Clouds
9:13 PM 33.1 °F 26.9 °F 21.7 °F 63% 29.99 in 10.0 mi West 6.9 mph - N/A   Clear
9:33 PM 31.1 °F 24.5 °F 21.0 °F 66% 29.99 in 10.0 mi West 6.9 mph - N/A   Clear
9:53 PM 29.5 °F 23.4 °F 20.3 °F 69% 30.00 in 10.0 mi West 5.8 mph - N/A   Clear
10:13 PM 27.1 °F 20.7 °F 19.9 °F 74% 30.00 in 10.0 mi West 5.8 mph - N/A   Clear
10:33 PM 25.5 °F 19.9 °F 19.2 °F 77% 30.01 in 10.0 mi West 4.6 mph - N/A   Clear
10:53 PM 26.4 °F 18.9 °F 19.8 °F 76% 30.01 in 10.0 mi West 6.9 mph - N/A   Clear
11:14 PM 26.1 °F 19.4 °F 20.3 °F 79% 30.01 in 10.0 mi West 5.8 mph - N/A   Clear
11:33 PM 28.0 °F 22.8 °F 21.0 °F 75% 30.01 in 10.0 mi West 4.6 mph - N/A   Scattered Clouds
11:53 PM 28.8 °F 25.0 °F 21.0 °F 73% 30.00 in 10.0 mi WNW 3.5 mph - N/A   Scattered Clouds